Time,TemperatureF,DewpointF,PressureIn,WindDirection,WindDirectionDegrees,WindSpeedMPH,WindSpeedGustMPH,Humidity,HourlyPrecipIn,Conditions,Clouds,dailyrainin,SoftwareType,DateUTC
2013-03-27 00:03:00,43.2,27.7,30.07,NW,322,2.0,4.0,54,0.00,,---,0.00,VWS V14.01,2013-03-27 04:03:00,
2013-03-27 00:08:00,43.1,27.6,30.07,NW,322,0.0,4.0,54,0.00,,---,0.00,VWS V14.01,2013-03-27 04:08:00,
2013-03-27 00:13:00,42.9,27.4,30.07,NW,322,1.0,1.0,54,0.00,,---,0.00,VWS V14.01,2013-03-27 04:13:00,
2013-03-27 00:18:00,42.9,27.9,30.07,NW,322,2.0,3.0,55,0.00,,---,0.00,VWS V14.01,2013-03-27 04:18:00,
2013-03-27 00:23:00,42.8,28.2,30.07,NW,322,0.0,0.0,56,0.00,,---,0.00,VWS V14.01,2013-03-27 04:23:00,
2013-03-27 00:28:00,42.6,28.0,30.07,NW,322,0.0,0.0,56,0.00,,---,0.00,VWS V14.01,2013-03-27 04:28:00,
2013-03-27 00:33:00,42.5,27.5,30.08,NW,322,0.0,0.0,55,0.00,,---,0.00,VWS V14.01,2013-03-27 04:33:00,
2013-03-27 00:38:00,42.3,27.3,30.08,NW,322,0.0,3.0,55,0.00,,---,0.00,VWS V14.01,2013-03-27 04:38:00,
2013-03-27 00:43:00,42.2,27.6,30.08,NW,322,0.0,0.0,56,0.00,,---,0.00,VWS V14.01,2013-03-27 04:43:00,
2013-03-27 00:48:00,42.1,27.5,30.07,NW,322,0.0,0.0,56,0.00,,---,0.00,VWS V14.01,2013-03-27 04:48:00,
2013-03-27 00:53:00,41.9,28.2,30.07,NW,322,0.0,0.0,58,0.00,,---,0.00,VWS V14.01,2013-03-27 04:53:00,
2013-03-27 00:58:00,41.8,28.1,30.07,NW,322,1.0,2.0,58,0.00,,---,0.00,VWS V14.01,2013-03-27 04:58:00,
2013-03-27 01:03:00,41.6,27.5,30.08,NW,322,0.0,0.0,57,0.00,,---,0.00,VWS V14.01,2013-03-27 05:03:00,
2013-03-27 01:08:00,41.5,27.8,30.08,NW,322,0.0,0.0,58,0.00,,---,0.00,VWS V14.01,2013-03-27 05:08:00,
2013-03-27 01:13:00,41.3,28.1,30.08,NW,322,0.0,0.0,59,0.00,,---,0.00,VWS V14.01,2013-03-27 05:13:00,
2013-03-27 01:18:00,41.2,28.4,30.07,NW,322,0.0,0.0,60,0.00,,---,0.00,VWS V14.01,2013-03-27 05:18:00,
2013-03-27 01:23:00,41.1,28.7,30.07,NW,322,0.0,0.0,61,0.00,,---,0.00,VWS V14.01,2013-03-27 05:23:00,
2013-03-27 01:28:00,41.1,29.1,30.07,NW,322,0.0,0.0,62,0.00,,---,0.00,VWS V14.01,2013-03-27 05:28:00,
2013-03-27 01:33:00,40.9,29.7,30.08,NW,322,0.0,0.0,64,0.00,,---,0.00,VWS V14.01,2013-03-27 05:33:00,
2013-03-27 01:38:00,40.8,29.2,30.08,NW,322,0.0,0.0,63,0.00,,---,0.00,VWS V14.01,2013-03-27 05:38:00,
2013-03-27 01:43:00,40.5,28.5,30.08,NW,322,0.0,0.0,62,0.00,,---,0.00,VWS V14.01,2013-03-27 05:43:00,
2013-03-27 01:48:00,40.3,28.3,30.08,NW,322,0.0,0.0,62,0.00,,---,0.00,VWS V14.01,2013-03-27 05:48:00,
2013-03-27 01:53:00,40.2,28.6,30.08,NW,322,0.0,0.0,63,0.00,,---,0.00,VWS V14.01,2013-03-27 05:53:00,
2013-03-27 01:58:00,40.1,28.1,30.08,NW,322,0.0,2.0,62,0.00,,---,0.00,VWS V14.01,2013-03-27 05:58:00,
2013-03-27 02:03:00,39.9,28.0,30.08,NW,322,0.0,0.0,62,0.00,,---,0.00,VWS V14.01,2013-03-27 06:03:00,
2013-03-27 02:08:00,39.8,28.2,30.08,NW,322,0.0,0.0,63,0.00,,---,0.00,VWS V14.01,2013-03-27 06:08:00,
2013-03-27 02:13:00,39.6,29.2,30.08,NW,322,0.0,0.0,66,0.00,,---,0.00,VWS V14.01,2013-03-27 06:13:00,
2013-03-27 02:18:00,39.6,28.8,30.08,NW,322,0.0,0.0,65,0.00,,---,0.00,VWS V14.01,2013-03-27 06:18:00,
2013-03-27 02:23:00,39.6,28.8,30.08,NW,322,0.0,0.0,65,0.00,,---,0.00,VWS V14.01,2013-03-27 06:23:00,
2013-03-27 02:28:00,39.5,28.7,30.08,NW,322,0.0,0.0,65,0.00,,---,0.00,VWS V14.01,2013-03-27 06:28:00,
2013-03-27 02:33:00,39.3,28.9,30.07,NW,322,0.0,0.0,66,0.00,,---,0.00,VWS V14.01,2013-03-27 06:33:00,
2013-03-27 02:38:00,39.2,28.8,30.07,NW,322,0.0,0.0,66,0.00,,---,0.00,VWS V14.01,2013-03-27 06:38:00,
2013-03-27 02:43:00,38.9,28.5,30.07,NW,322,0.0,0.0,66,0.00,,---,0.00,VWS V14.01,2013-03-27 06:43:00,
2013-03-27 02:48:00,38.8,28.8,30.07,NW,322,0.0,0.0,67,0.00,,---,0.00,VWS V14.01,2013-03-27 06:48:00,
2013-03-27 02:53:00,38.6,28.2,30.07,NW,322,0.0,0.0,66,0.00,,---,0.00,VWS V14.01,2013-03-27 06:53:00,
2013-03-27 02:58:00,38.6,29.0,30.07,NW,322,0.0,0.0,68,0.00,,---,0.00,VWS V14.01,2013-03-27 06:58:00,
2013-03-27 03:03:00,38.5,28.1,30.07,NW,322,0.0,0.0,66,0.00,,---,0.00,VWS V14.01,2013-03-27 07:03:00,
2013-03-27 03:08:00,38.3,28.3,30.07,NW,322,0.0,1.0,67,0.00,,---,0.00,VWS V14.01,2013-03-27 07:08:00,
2013-03-27 03:13:00,38.2,28.2,30.07,NW,322,0.0,0.0,67,0.00,,---,0.00,VWS V14.01,2013-03-27 07:13:00,
2013-03-27 03:18:00,38.0,28.4,30.07,NW,322,0.0,2.0,68,0.00,,---,0.00,VWS V14.01,2013-03-27 07:18:00,
2013-03-27 03:23:00,37.9,28.3,30.07,NW,322,0.0,0.0,68,0.00,,---,0.00,VWS V14.01,2013-03-27 07:23:00,
2013-03-27 03:28:00,37.8,27.8,30.07,NW,322,0.0,0.0,67,0.00,,---,0.00,VWS V14.01,2013-03-27 07:28:00,
2013-03-27 03:33:00,37.8,27.8,30.07,NW,322,0.0,0.0,67,0.00,,---,0.00,VWS V14.01,2013-03-27 07:33:00,
2013-03-27 03:38:00,37.6,27.6,30.07,NW,322,0.0,0.0,67,0.00,,---,0.00,VWS V14.01,2013-03-27 07:38:00,
2013-03-27 03:43:00,37.5,27.5,30.07,NW,322,0.0,0.0,67,0.00,,---,0.00,VWS V14.01,2013-03-27 07:43:00,
2013-03-27 03:48:00,37.3,27.7,30.07,NW,322,0.0,0.0,68,0.00,,---,0.00,VWS V14.01,2013-03-27 07:48:00,
2013-03-27 03:53:00,37.2,27.3,30.07,NW,322,0.0,0.0,67,0.00,,---,0.00,VWS V14.01,2013-03-27 07:53:00,
2013-03-27 03:58:00,37.0,28.1,30.07,NW,322,0.0,0.0,70,0.00,,---,0.00,VWS V14.01,2013-03-27 07:58:00,
2013-03-27 04:03:00,36.9,28.0,30.07,NW,322,0.0,0.0,70,0.00,,---,0.00,VWS V14.01,2013-03-27 08:03:00,
2013-03-27 04:08:00,36.9,28.4,30.07,NW,322,0.0,0.0,71,0.00,,---,0.00,VWS V14.01,2013-03-27 08:08:00,
2013-03-27 04:13:00,36.8,28.3,30.07,NW,322,0.0,0.0,71,0.00,,---,0.00,VWS V14.01,2013-03-27 08:13:00,
2013-03-27 04:18:00,36.6,28.1,30.07,NW,322,0.0,0.0,71,0.00,,---,0.00,VWS V14.01,2013-03-27 08:18:00,
2013-03-27 04:23:00,36.5,28.0,30.07,NW,322,0.0,0.0,71,0.00,,---,0.00,VWS V14.01,2013-03-27 08:23:00,
2013-03-27 04:28:00,36.5,28.7,30.07,NW,322,0.0,0.0,73,0.00,,---,0.00,VWS V14.01,2013-03-27 08:28:00,
2013-03-27 04:33:00,36.3,28.1,30.08,NW,322,0.0,0.0,72,0.00,,---,0.00,VWS V14.01,2013-03-27 08:33:00,
2013-03-27 04:38:00,36.0,27.9,30.08,NW,322,0.0,0.0,72,0.00,,---,0.00,VWS V14.01,2013-03-27 08:38:00,
2013-03-27 04:43:00,35.9,27.4,30.08,NW,322,0.0,0.0,71,0.00,,---,0.00,VWS V14.01,2013-03-27 08:43:00,
2013-03-27 04:48:00,35.9,27.1,30.08,NW,322,0.0,2.0,70,0.00,,---,0.00,VWS V14.01,2013-03-27 08:48:00,
2013-03-27 04:53:00,35.9,27.1,30.08,NW,322,0.0,0.0,70,0.00,,---,0.00,VWS V14.01,2013-03-27 08:53:00,
2013-03-27 04:58:00,35.8,27.7,30.08,NW,322,0.0,0.0,72,0.00,,---,0.00,VWS V14.01,2013-03-27 08:58:00,
2013-03-27 05:03:00,35.8,27.7,30.08,NW,322,0.0,0.0,72,0.00,,---,0.00,VWS V14.01,2013-03-27 09:03:00,
2013-03-27 05:08:00,35.8,27.7,30.08,NW,322,0.0,0.0,72,0.00,,---,0.00,VWS V14.01,2013-03-27 09:08:00,
2013-03-27 05:13:00,35.9,27.8,30.08,NW,322,0.0,0.0,72,0.00,,---,0.00,VWS V14.01,2013-03-27 09:13:00,
2013-03-27 05:18:00,35.8,27.7,30.09,NW,322,0.0,0.0,72,0.00,,---,0.00,VWS V14.01,2013-03-27 09:18:00,
2013-03-27 05:23:00,35.8,28.0,30.09,NW,322,0.0,0.0,73,0.00,,---,0.00,VWS V14.01,2013-03-27 09:23:00,
2013-03-27 05:28:00,35.6,28.1,30.09,NW,322,0.0,0.0,74,0.00,,---,0.00,VWS V14.01,2013-03-27 09:28:00,
2013-03-27 05:33:00,35.5,28.0,30.09,NW,322,0.0,0.0,74,0.00,,---,0.00,VWS V14.01,2013-03-27 09:33:00,
2013-03-27 05:38:00,35.5,28.0,30.09,NW,322,0.0,0.0,74,0.00,,---,0.00,VWS V14.01,2013-03-27 09:38:00,
2013-03-27 05:43:00,35.5,28.0,30.09,NW,322,0.0,0.0,74,0.00,,---,0.00,VWS V14.01,2013-03-27 09:43:00,
2013-03-27 05:48:00,35.3,27.9,30.09,NW,322,0.0,0.0,74,0.00,,---,0.00,VWS V14.01,2013-03-27 09:48:00,
2013-03-27 05:53:00,35.3,28.2,30.09,NW,322,0.0,0.0,75,0.00,,---,0.00,VWS V14.01,2013-03-27 09:53:00,
2013-03-27 05:58:00,35.2,28.1,30.09,NW,322,0.0,0.0,75,0.00,,---,0.00,VWS V14.01,2013-03-27 09:58:00,
2013-03-27 06:03:00,35.2,27.8,30.10,NW,322,0.0,0.0,74,0.00,,---,0.00,VWS V14.01,2013-03-27 10:03:00,
2013-03-27 06:08:00,35.0,27.6,30.10,NW,322,0.0,0.0,74,0.00,,---,0.00,VWS V14.01,2013-03-27 10:08:00,
2013-03-27 06:13:00,34.9,27.8,30.10,NW,322,0.0,0.0,75,0.00,,---,0.00,VWS V14.01,2013-03-27 10:13:00,
2013-03-27 06:18:00,34.9,28.1,30.10,NW,322,0.0,0.0,76,0.00,,---,0.00,VWS V14.01,2013-03-27 10:18:00,
2013-03-27 06:23:00,34.7,28.2,30.10,NW,322,0.0,0.0,77,0.00,,---,0.00,VWS V14.01,2013-03-27 10:23:00,
2013-03-27 06:28:00,34.4,28.3,30.10,NW,322,0.0,0.0,78,0.00,,---,0.00,VWS V14.01,2013-03-27 10:28:00,
2013-03-27 06:33:00,34.3,27.9,30.10,NW,322,0.0,0.0,77,0.00,,---,0.00,VWS V14.01,2013-03-27 10:33:00,
2013-03-27 06:38:00,34.3,27.9,30.10,NW,322,0.0,0.0,77,0.00,,---,0.00,VWS V14.01,2013-03-27 10:38:00,
2013-03-27 06:43:00,34.1,27.7,30.10,NW,322,0.0,0.0,77,0.00,,---,0.00,VWS V14.01,2013-03-27 10:43:00,
2013-03-27 06:48:00,34.0,27.6,30.11,NW,322,0.0,0.0,77,0.00,,---,0.00,VWS V14.01,2013-03-27 10:48:00,
2013-03-27 06:53:00,34.0,27.9,30.11,NW,322,0.0,0.0,78,0.00,,---,0.00,VWS V14.01,2013-03-27 10:53:00,
2013-03-27 06:58:00,33.7,27.9,30.11,NW,322,0.0,0.0,79,0.00,,---,0.00,VWS V14.01,2013-03-27 10:58:00,
2013-03-27 07:03:00,33.4,27.9,30.12,NW,322,0.0,0.0,80,0.00,,---,0.00,VWS V14.01,2013-03-27 11:03:00,
2013-03-27 07:08:00,33.2,27.7,30.12,NW,322,0.0,0.0,80,0.00,,---,0.00,VWS V14.01,2013-03-27 11:08:00,
2013-03-27 07:13:00,32.9,27.4,30.12,NW,322,0.0,0.0,80,0.00,,---,0.00,VWS V14.01,2013-03-27 11:13:00,
2013-03-27 07:18:00,32.9,27.7,30.13,NW,322,0.0,0.0,81,0.00,,---,0.00,VWS V14.01,2013-03-27 11:18:00,
2013-03-27 07:23:00,32.8,27.3,30.13,NW,322,0.0,0.0,80,0.00,,---,0.00,VWS V14.01,2013-03-27 11:23:00,
2013-03-27 07:28:00,32.7,27.5,30.13,NW,322,0.0,0.0,81,0.00,,---,0.00,VWS V14.01,2013-03-27 11:28:00,
2013-03-27 07:33:00,32.8,27.9,30.14,NW,322,0.0,0.0,82,0.00,,---,0.00,VWS V14.01,2013-03-27 11:33:00,
2013-03-27 07:38:00,32.8,27.6,30.14,NW,322,0.0,0.0,81,0.00,,---,0.00,VWS V14.01,2013-03-27 11:38:00,
2013-03-27 07:43:00,32.8,27.6,30.14,NW,322,0.0,0.0,81,0.00,,---,0.00,VWS V14.01,2013-03-27 11:43:00,
2013-03-27 07:48:00,32.9,27.4,30.14,NW,322,0.0,0.0,80,0.00,,---,0.00,VWS V14.01,2013-03-27 11:48:00,
2013-03-27 07:53:00,32.9,27.4,30.14,NW,322,0.0,0.0,80,0.00,,---,0.00,VWS V14.01,2013-03-27 11:53:00,
2013-03-27 07:58:00,33.1,27.6,30.14,NW,322,0.0,0.0,80,0.00,,---,0.00,VWS V14.01,2013-03-27 11:58:00,
2013-03-27 08:03:00,33.2,27.4,30.14,NW,322,0.0,0.0,79,0.00,,---,0.00,VWS V14.01,2013-03-27 12:03:00,
2013-03-27 08:08:00,33.5,27.4,30.14,NW,322,0.0,0.0,78,0.00,,---,0.00,VWS V14.01,2013-03-27 12:08:00,
2013-03-27 08:13:00,33.8,27.7,30.14,NW,322,0.0,0.0,78,0.00,,---,0.00,VWS V14.01,2013-03-27 12:13:00,
2013-03-27 08:18:00,34.1,27.7,30.15,SW,224,0.0,1.0,77,0.00,,---,0.00,VWS V14.01,2013-03-27 12:18:00,
2013-03-27 08:23:00,34.6,27.8,30.15,SW,224,0.0,0.0,76,0.00,,---,0.00,VWS V14.01,2013-03-27 12:23:00,
2013-03-27 08:28:00,34.9,27.5,30.15,NW,318,0.0,3.0,74,0.00,,---,0.00,VWS V14.01,2013-03-27 12:28:00,
2013-03-27 08:33:00,35.5,28.0,30.15,NW,318,2.0,2.0,74,0.00,,---,0.00,VWS V14.01,2013-03-27 12:33:00,
2013-03-27 08:38:00,35.9,28.4,30.15,NW,318,3.0,3.0,74,0.00,,---,0.00,VWS V14.01,2013-03-27 12:38:00,
2013-03-27 08:43:00,36.5,28.0,30.15,WNW,299,2.0,4.0,71,0.00,,---,0.00,VWS V14.01,2013-03-27 12:43:00,
2013-03-27 08:48:00,36.9,28.4,30.16,WNW,302,3.0,6.0,71,0.00,,---,0.00,VWS V14.01,2013-03-27 12:48:00,
2013-03-27 08:53:00,37.5,28.6,30.16,NNW,330,5.0,5.0,70,0.00,,---,0.00,VWS V14.01,2013-03-27 12:53:00,
2013-03-27 08:58:00,38.0,28.4,30.16,NW,315,1.0,6.0,68,0.00,,---,0.00,VWS V14.01,2013-03-27 12:58:00,
2013-03-27 09:03:00,38.8,28.4,30.16,NNW,342,2.0,5.0,66,0.00,,---,0.00,VWS V14.01,2013-03-27 13:03:00,
2013-03-27 09:08:00,39.2,28.4,30.16,NW,319,4.0,5.0,65,0.00,,---,0.00,VWS V14.01,2013-03-27 13:08:00,
2013-03-27 09:13:00,39.8,28.6,30.16,NW,320,6.0,8.0,64,0.00,,---,0.00,VWS V14.01,2013-03-27 13:13:00,
2013-03-27 09:18:00,40.3,28.7,30.16,NW,325,2.0,8.0,63,0.00,,---,0.00,VWS V14.01,2013-03-27 13:18:00,
2013-03-27 09:23:00,40.6,28.6,30.16,WNW,301,2.0,3.0,62,0.00,,---,0.00,VWS V14.01,2013-03-27 13:23:00,
2013-03-27 09:28:00,41.1,29.1,30.16,NW,320,2.0,6.0,62,0.00,,---,0.00,VWS V14.01,2013-03-27 13:28:00,
2013-03-27 09:33:00,41.5,29.1,30.17,NW,318,4.0,5.0,61,0.00,,---,0.00,VWS V14.01,2013-03-27 13:33:00,
2013-03-27 09:38:00,41.9,28.2,30.17,NW,320,6.0,7.0,58,0.00,,---,0.00,VWS V14.01,2013-03-27 13:38:00,
2013-03-27 09:43:00,42.3,27.7,30.17,NW,318,5.0,5.0,56,0.00,,---,0.00,VWS V14.01,2013-03-27 13:43:00,
2013-03-27 09:48:00,42.6,28.0,30.17,NNW,335,6.0,8.0,56,0.00,,---,0.00,VWS V14.01,2013-03-27 13:48:00,
2013-03-27 09:53:00,43.1,28.0,30.17,NW,326,7.0,7.0,55,0.00,,---,0.00,VWS V14.01,2013-03-27 13:53:00,
2013-03-27 09:58:00,43.3,26.9,30.17,NW,320,2.0,7.0,52,0.00,,---,0.00,VWS V14.01,2013-03-27 13:58:00,
2013-03-27 10:03:00,43.6,27.1,30.16,NW,311,3.0,5.0,52,0.00,,---,0.00,VWS V14.01,2013-03-27 14:03:00,
2013-03-27 10:08:00,44.1,27.6,30.16,NNW,333,2.0,8.0,52,0.00,,---,0.00,VWS V14.01,2013-03-27 14:08:00,
2013-03-27 10:13:00,44.3,26.4,30.16,NW,305,2.0,5.0,49,0.00,,---,0.00,VWS V14.01,2013-03-27 14:13:00,
2013-03-27 10:18:00,44.9,26.4,30.16,North,0,3.0,8.0,48,0.00,,---,0.00,VWS V14.01,2013-03-27 14:18:00,
2013-03-27 10:23:00,45.2,25.7,30.16,NW,313,1.0,3.0,46,0.00,,---,0.00,VWS V14.01,2013-03-27 14:23:00,
2013-03-27 10:28:00,45.7,25.0,30.16,NW,308,2.0,8.0,44,0.00,,---,0.00,VWS V14.01,2013-03-27 14:28:00,
2013-03-27 10:33:00,46.1,25.4,30.16,NW,309,3.0,4.0,44,0.00,,---,0.00,VWS V14.01,2013-03-27 14:33:00,
2013-03-27 10:38:00,46.7,24.3,30.16,NW,306,0.0,5.0,41,0.00,,---,0.00,VWS V14.01,2013-03-27 14:38:00,
2013-03-27 10:43:00,46.8,23.2,30.16,NNW,329,0.0,3.0,39,0.00,,---,0.00,VWS V14.01,2013-03-27 14:43:00,
2013-03-27 10:48:00,47.0,24.0,30.16,NNW,328,0.0,7.0,40,0.00,,---,0.00,VWS V14.01,2013-03-27 14:48:00,
2013-03-27 10:53:00,47.1,23.4,30.16,NNW,342,1.0,1.0,39,0.00,,---,0.00,VWS V14.01,2013-03-27 14:53:00,
2013-03-27 10:58:00,47.4,23.7,30.16,NNE,27,3.0,6.0,39,0.00,,---,0.00,VWS V14.01,2013-03-27 14:58:00,
2013-03-27 11:03:00,47.7,24.0,30.15,North,0,0.0,0.0,39,0.00,,---,0.00,VWS V14.01,2013-03-27 15:03:00,
2013-03-27 11:08:00,48.3,24.5,30.15,NW,315,5.0,7.0,39,0.00,,---,0.00,VWS V14.01,2013-03-27 15:08:00,
2013-03-27 11:13:00,48.6,24.8,30.15,NNW,332,3.0,3.0,39,0.00,,---,0.00,VWS V14.01,2013-03-27 15:13:00,
2013-03-27 11:18:00,49.1,24.6,30.15,NNE,30,3.0,6.0,38,0.00,,---,0.00,VWS V14.01,2013-03-27 15:18:00,
2013-03-27 11:23:00,49.6,25.0,30.15,North,6,0.0,1.0,38,0.00,,---,0.00,VWS V14.01,2013-03-27 15:23:00,
2013-03-27 11:28:00,49.6,24.4,30.15,NNW,329,5.0,8.0,37,0.00,,---,0.00,VWS V14.01,2013-03-27 15:28:00,
2013-03-27 11:33:00,49.4,24.2,30.15,NW,305,5.0,5.0,37,0.00,,---,0.00,VWS V14.01,2013-03-27 15:33:00,
2013-03-27 11:37:00,49.5,21.6,30.15,NW,325,4.0,7.0,33,0.00,,---,0.00,VWS V14.01,2013-03-27 15:37:00,
2013-03-27 11:42:00,49.5,22.3,30.15,WNW,298,0.0,0.0,34,0.00,,---,0.00,VWS V14.01,2013-03-27 15:42:00,
2013-03-27 11:47:00,49.6,23.1,30.15,NW,322,2.0,7.0,35,0.00,,---,0.00,VWS V14.01,2013-03-27 15:47:00,
2013-03-27 11:52:00,50.1,23.5,30.15,West,281,2.0,5.0,35,0.00,,---,0.00,VWS V14.01,2013-03-27 15:52:00,
2013-03-27 11:57:00,50.5,22.5,30.15,NW,322,3.0,7.0,33,0.00,,---,0.00,VWS V14.01,2013-03-27 15:57:00,
2013-03-27 12:02:00,50.7,22.7,30.15,SSE,150,2.0,6.0,33,0.00,,---,0.00,VWS V14.01,2013-03-27 16:02:00,
2013-03-27 12:08:00,51.0,23.6,30.15,NW,306,1.0,6.0,34,0.00,,---,0.00,VWS V14.01,2013-03-27 16:08:00,
2013-03-27 12:13:00,51.3,23.2,30.15,North,349,2.0,3.0,33,0.00,,---,0.00,VWS V14.01,2013-03-27 16:13:00,
2013-03-27 12:18:00,51.7,25.6,30.14,NNW,337,1.0,5.0,36,0.00,,---,0.00,VWS V14.01,2013-03-27 16:18:00,
2013-03-27 12:23:00,51.9,23.0,30.14,NW,320,2.0,4.0,32,0.00,,---,0.00,VWS V14.01,2013-03-27 16:23:00,
2013-03-27 12:28:00,51.6,22.7,30.14,NNW,329,0.0,7.0,32,0.00,,---,0.00,VWS V14.01,2013-03-27 16:28:00,
2013-03-27 12:33:00,51.7,24.3,30.14,NNW,329,5.0,5.0,34,0.00,,---,0.00,VWS V14.01,2013-03-27 16:33:00,
2013-03-27 12:38:00,52.2,24.0,30.14,North,356,3.0,7.0,33,0.00,,---,0.00,VWS V14.01,2013-03-27 16:38:00,
2013-03-27 12:43:00,52.2,23.2,30.14,NW,312,3.0,6.0,32,0.00,,---,0.00,VWS V14.01,2013-03-27 16:43:00,
2013-03-27 12:48:00,52.3,23.3,30.13,NW,316,0.0,10.0,32,0.00,,---,0.00,VWS V14.01,2013-03-27 16:48:00,
2013-03-27 12:53:00,52.9,23.9,30.13,NW,322,1.0,5.0,32,0.00,,---,0.00,VWS V14.01,2013-03-27 16:53:00,
2013-03-27 12:58:00,53.2,24.1,30.13,NW,305,5.0,7.0,32,0.00,,---,0.00,VWS V14.01,2013-03-27 16:58:00,
2013-03-27 13:03:00,53.2,21.8,30.13,SSW,212,0.0,0.0,29,0.00,,---,0.00,VWS V14.01,2013-03-27 17:03:00,
2013-03-27 13:08:00,53.1,24.0,30.13,NW,306,1.0,6.0,32,0.00,,---,0.00,VWS V14.01,2013-03-27 17:08:00,
2013-03-27 13:13:00,53.2,24.1,30.13,NNW,332,3.0,3.0,32,0.00,,---,0.00,VWS V14.01,2013-03-27 17:13:00,
2013-03-27 13:18:00,54.4,22.0,30.13,NW,308,5.0,8.0,28,0.00,,---,0.00,VWS V14.01,2013-03-27 17:18:00,
2013-03-27 13:23:00,54.1,22.6,30.13,NNW,329,4.0,4.0,29,0.00,,---,0.00,VWS V14.01,2013-03-27 17:23:00,
2013-03-27 13:28:00,54.4,23.6,30.13,WNW,296,3.0,9.0,30,0.00,,---,0.00,VWS V14.01,2013-03-27 17:28:00,
2013-03-27 13:33:00,54.2,23.5,30.12,WNW,292,3.0,3.0,30,0.00,,---,0.00,VWS V14.01,2013-03-27 17:33:00,
2013-03-27 13:37:00,54.5,25.3,30.12,NW,325,5.0,6.0,32,0.00,,---,0.00,VWS V14.01,2013-03-27 17:37:00,
2013-03-27 13:43:00,54.8,24.0,30.12,East,82,0.0,0.0,30,0.00,,---,0.00,VWS V14.01,2013-03-27 17:43:00,
2013-03-27 13:48:00,55.0,22.5,30.11,NW,312,3.0,7.0,28,0.00,,---,0.00,VWS V14.01,2013-03-27 17:48:00,
2013-03-27 13:52:00,54.8,23.2,30.11,NW,316,3.0,3.0,29,0.00,,---,0.00,VWS V14.01,2013-03-27 17:52:00,
2013-03-27 13:57:00,54.7,23.1,30.11,WNW,291,5.0,6.0,29,0.00,,---,0.00,VWS V14.01,2013-03-27 17:57:00,
2013-03-27 14:03:00,54.5,23.7,30.11,WSW,243,3.0,3.0,30,0.00,,---,0.00,VWS V14.01,2013-03-27 18:03:00,
2013-03-27 14:07:00,54.8,24.8,30.11,NW,325,0.0,6.0,31,0.00,,---,0.00,VWS V14.01,2013-03-27 18:07:00,
2013-03-27 14:12:00,55.1,25.0,30.11,NNW,333,0.0,4.0,31,0.00,,---,0.00,VWS V14.01,2013-03-27 18:12:00,
2013-03-27 14:17:00,55.1,22.6,30.11,NNW,340,5.0,8.0,28,0.00,,---,0.00,VWS V14.01,2013-03-27 18:17:00,
2013-03-27 14:22:00,55.1,23.4,30.11,NNW,343,0.0,0.0,29,0.00,,---,0.00,VWS V14.01,2013-03-27 18:22:00,
2013-03-27 14:27:00,55.1,22.6,30.11,NW,308,5.0,11.0,28,0.00,,---,0.00,VWS V14.01,2013-03-27 18:27:00,
2013-03-27 14:32:00,55.0,24.2,30.10,NNW,339,6.0,6.0,30,0.00,,---,0.00,VWS V14.01,2013-03-27 18:32:00,
2013-03-27 14:37:00,55.3,23.6,30.10,SSW,210,1.0,10.0,29,0.00,,---,0.00,VWS V14.01,2013-03-27 18:37:00,
2013-03-27 14:42:00,55.9,24.1,30.10,NNW,332,3.0,3.0,29,0.00,,---,0.00,VWS V14.01,2013-03-27 18:42:00,
2013-03-27 14:47:00,56.2,25.2,30.09,NW,311,4.0,8.0,30,0.00,,---,0.00,VWS V14.01,2013-03-27 18:47:00,
2013-03-27 14:52:00,55.7,23.1,30.09,SW,234,2.0,10.0,28,0.00,,---,0.00,VWS V14.01,2013-03-27 18:52:00,
2013-03-27 14:57:00,55.7,26.3,30.09,North,352,7.0,7.0,32,0.00,,---,0.00,VWS V14.01,2013-03-27 18:57:00,
2013-03-27 15:02:00,55.6,23.9,30.09,NW,326,2.0,10.0,29,0.00,,---,0.00,VWS V14.01,2013-03-27 19:02:00,
2013-03-27 15:07:00,55.7,24.0,30.09,NW,306,1.0,5.0,29,0.00,,---,0.00,VWS V14.01,2013-03-27 19:07:00,
2013-03-27 15:12:00,55.7,24.8,30.09,NNW,330,5.0,6.0,30,0.00,,---,0.00,VWS V14.01,2013-03-27 19:12:00,
2013-03-27 15:17:00,55.9,24.1,30.09,NW,313,1.0,8.0,29,0.00,,---,0.00,VWS V14.01,2013-03-27 19:17:00,
2013-03-27 15:22:00,55.4,23.7,30.09,NNW,329,4.0,8.0,29,0.00,,---,0.00,VWS V14.01,2013-03-27 19:22:00,
2013-03-27 15:27:00,55.4,23.7,30.09,NW,306,3.0,7.0,29,0.00,,---,0.00,VWS V14.01,2013-03-27 19:27:00,
2013-03-27 15:32:00,55.3,23.6,30.08,NW,308,3.0,8.0,29,0.00,,---,0.00,VWS V14.01,2013-03-27 19:32:00,
2013-03-27 15:37:00,55.4,23.7,30.08,NNW,328,2.0,6.0,29,0.00,,---,0.00,VWS V14.01,2013-03-27 19:37:00,
2013-03-27 15:42:00,55.4,23.7,30.08,WNW,295,1.0,1.0,29,0.00,,---,0.00,VWS V14.01,2013-03-27 19:42:00,
2013-03-27 15:47:00,55.3,23.6,30.08,WNW,296,0.0,8.0,29,0.00,,---,0.00,VWS V14.01,2013-03-27 19:47:00,
2013-03-27 15:52:00,55.3,24.4,30.08,NW,326,0.0,8.0,30,0.00,,---,0.00,VWS V14.01,2013-03-27 19:52:00,
2013-03-27 15:57:00,55.4,23.7,30.08,NW,318,6.0,11.0,29,0.00,,---,0.00,VWS V14.01,2013-03-27 19:57:00,
2013-03-27 16:02:00,55.1,28.0,30.08,North,359,5.0,11.0,35,0.00,,---,0.00,VWS V14.01,2013-03-27 20:02:00,
2013-03-27 16:07:00,55.0,26.5,30.08,NW,320,0.0,8.0,33,0.00,,---,0.00,VWS V14.01,2013-03-27 20:07:00,
2013-03-27 16:12:00,54.8,24.0,30.08,NNW,336,1.0,9.0,30,0.00,,---,0.00,VWS V14.01,2013-03-27 20:12:00,
2013-03-27 16:17:00,54.8,25.5,30.07,NW,316,2.0,5.0,32,0.00,,---,0.00,VWS V14.01,2013-03-27 20:17:00,
2013-03-27 16:22:00,54.8,24.0,30.07,NNW,335,1.0,6.0,30,0.00,,---,0.00,VWS V14.01,2013-03-27 20:22:00,
2013-03-27 16:27:00,55.1,24.2,30.07,NW,304,0.0,5.0,30,0.00,,---,0.00,VWS V14.01,2013-03-27 20:27:00,
2013-03-27 16:32:00,55.1,24.2,30.07,NW,315,6.0,6.0,30,0.00,,---,0.00,VWS V14.01,2013-03-27 20:32:00,
2013-03-27 16:37:00,55.1,23.4,30.07,NW,319,3.0,10.0,29,0.00,,---,0.00,VWS V14.01,2013-03-27 20:37:00,
2013-03-27 16:42:00,54.8,25.5,30.07,NNW,329,4.0,10.0,32,0.00,,---,0.00,VWS V14.01,2013-03-27 20:42:00,
2013-03-27 16:47:00,54.7,24.7,30.07,NW,309,1.0,5.0,31,0.00,,---,0.00,VWS V14.01,2013-03-27 20:47:00,
2013-03-27 16:52:00,55.0,25.7,30.07,NW,312,5.0,5.0,32,0.00,,---,0.00,VWS V14.01,2013-03-27 20:52:00,
2013-03-27 16:57:00,55.3,23.6,30.07,NW,320,5.0,6.0,29,0.00,,---,0.00,VWS V14.01,2013-03-27 20:57:00,
2013-03-27 17:02:00,55.3,25.2,30.08,NE,37,0.0,7.0,31,0.00,,---,0.00,VWS V14.01,2013-03-27 21:02:00,
2013-03-27 17:07:00,55.6,24.7,30.08,NW,316,0.0,4.0,30,0.00,,---,0.00,VWS V14.01,2013-03-27 21:07:00,
2013-03-27 17:12:00,55.6,23.9,30.08,NW,322,3.0,12.0,29,0.00,,---,0.00,VWS V14.01,2013-03-27 21:12:00,
2013-03-27 17:17:00,55.4,24.5,30.08,NW,312,2.0,8.0,30,0.00,,---,0.00,VWS V14.01,2013-03-27 21:17:00,
2013-03-27 17:22:00,55.1,22.6,30.08,NNW,337,6.0,8.0,28,0.00,,---,0.00,VWS V14.01,2013-03-27 21:22:00,
2013-03-27 17:27:00,54.8,22.3,30.08,North,350,5.0,7.0,28,0.00,,---,0.00,VWS V14.01,2013-03-27 21:27:00,
2013-03-27 17:32:00,54.7,24.7,30.08,WNW,292,3.0,7.0,31,0.00,,---,0.00,VWS V14.01,2013-03-27 21:32:00,
2013-03-27 17:37:00,54.5,24.5,30.08,NW,316,1.0,6.0,31,0.00,,---,0.00,VWS V14.01,2013-03-27 21:37:00,
2013-03-27 17:42:00,54.5,22.9,30.08,WNW,302,6.0,7.0,29,0.00,,---,0.00,VWS V14.01,2013-03-27 21:42:00,
2013-03-27 17:47:00,54.2,23.5,30.08,NW,326,6.0,6.0,30,0.00,,---,0.00,VWS V14.01,2013-03-27 21:47:00,
2013-03-27 17:52:00,54.1,23.4,30.08,NW,315,4.0,13.0,30,0.00,,---,0.00,VWS V14.01,2013-03-27 21:52:00,
2013-03-27 17:57:00,53.9,23.2,30.08,NW,315,5.0,10.0,30,0.00,,---,0.00,VWS V14.01,2013-03-27 21:57:00,
2013-03-27 18:02:00,53.6,22.9,30.08,NW,311,5.0,10.0,30,0.00,,---,0.00,VWS V14.01,2013-03-27 22:02:00,
2013-03-27 18:07:00,53.6,22.9,30.08,NW,313,1.0,6.0,30,0.00,,---,0.00,VWS V14.01,2013-03-27 22:07:00,
2013-03-27 18:12:00,53.5,22.9,30.08,NW,318,5.0,6.0,30,0.00,,---,0.00,VWS V14.01,2013-03-27 22:12:00,
2013-03-27 18:17:00,53.5,22.9,30.09,NW,304,2.0,5.0,30,0.00,,---,0.00,VWS V14.01,2013-03-27 22:17:00,
2013-03-27 18:22:00,53.3,22.7,30.09,NW,325,1.0,6.0,30,0.00,,---,0.00,VWS V14.01,2013-03-27 22:22:00,
2013-03-27 18:27:00,53.2,21.8,30.09,NW,325,3.0,6.0,29,0.00,,---,0.00,VWS V14.01,2013-03-27 22:27:00,
2013-03-27 18:32:00,53.1,21.7,30.09,NW,311,2.0,6.0,29,0.00,,---,0.00,VWS V14.01,2013-03-27 22:32:00,
2013-03-27 18:37:00,52.9,23.9,30.09,NNW,342,0.0,5.0,32,0.00,,---,0.00,VWS V14.01,2013-03-27 22:37:00,
2013-03-27 18:42:00,52.8,23.0,30.09,NW,319,3.0,5.0,31,0.00,,---,0.00,VWS V14.01,2013-03-27 22:42:00,
2013-03-27 18:47:00,52.6,23.6,30.09,NNW,332,0.0,4.0,32,0.00,,---,0.00,VWS V14.01,2013-03-27 22:47:00,
2013-03-27 18:52:00,52.5,23.5,30.09,West,275,0.0,4.0,32,0.00,,---,0.00,VWS V14.01,2013-03-27 22:52:00,
2013-03-27 18:57:00,52.3,23.3,30.09,NW,305,0.0,5.0,32,0.00,,---,0.00,VWS V14.01,2013-03-27 22:57:00,
2013-03-27 19:02:00,52.2,24.0,30.09,NNW,346,2.0,5.0,33,0.00,,---,0.00,VWS V14.01,2013-03-27 23:02:00,
2013-03-27 19:07:00,52.0,23.1,30.09,NW,325,0.0,3.0,32,0.00,,---,0.00,VWS V14.01,2013-03-27 23:07:00,
2013-03-27 19:12:00,51.7,22.8,30.09,NNW,330,2.0,3.0,32,0.00,,---,0.00,VWS V14.01,2013-03-27 23:12:00,
2013-03-27 19:17:00,51.6,23.5,30.10,NNW,330,0.0,3.0,33,0.00,,---,0.00,VWS V14.01,2013-03-27 23:17:00,
2013-03-27 19:22:00,51.4,23.3,30.10,NNW,330,2.0,3.0,33,0.00,,---,0.00,VWS V14.01,2013-03-27 23:22:00,
2013-03-27 19:27:00,51.1,23.7,30.10,NW,319,0.0,5.0,34,0.00,,---,0.00,VWS V14.01,2013-03-27 23:27:00,
2013-03-27 19:32:00,51.0,23.6,30.10,NNW,335,0.0,5.0,34,0.00,,---,0.00,VWS V14.01,2013-03-27 23:32:00,
2013-03-27 19:37:00,50.7,24.1,30.10,NNW,335,0.0,2.0,35,0.00,,---,0.00,VWS V14.01,2013-03-27 23:37:00,
2013-03-27 19:42:00,50.4,23.8,30.10,NNW,335,0.0,2.0,35,0.00,,---,0.00,VWS V14.01,2013-03-27 23:42:00,
2013-03-27 19:47:00,50.1,26.1,30.11,NNW,335,0.0,0.0,39,0.00,,---,0.00,VWS V14.01,2013-03-27 23:47:00,
2013-03-27 19:52:00,49.9,25.3,30.11,NNW,335,0.0,0.0,38,0.00,,---,0.00,VWS V14.01,2013-03-27 23:52:00,
2013-03-27 19:57:00,49.6,26.3,30.11,NNW,335,0.0,0.0,40,0.00,,---,0.00,VWS V14.01,2013-03-27 23:57:00,
2013-03-27 20:02:00,49.5,25.6,30.12,NNW,335,0.0,0.0,39,0.00,,---,0.00,VWS V14.01,2013-03-28 00:02:00,
2013-03-27 20:07:00,49.2,27.1,30.12,NNW,329,0.0,0.0,42,0.00,,---,0.00,VWS V14.01,2013-03-28 00:07:00,
2013-03-27 20:12:00,49.1,27.6,30.12,NNW,329,0.0,0.0,43,0.00,,---,0.00,VWS V14.01,2013-03-28 00:12:00,
2013-03-27 20:17:00,48.8,27.3,30.13,NNW,329,0.0,0.0,43,0.00,,---,0.00,VWS V14.01,2013-03-28 00:17:00,
2013-03-27 20:22:00,48.8,27.3,30.13,NNW,329,0.0,0.0,43,0.00,,---,0.00,VWS V14.01,2013-03-28 00:22:00,
2013-03-27 20:27:00,48.6,27.1,30.13,NNW,329,0.0,0.0,43,0.00,,---,0.00,VWS V14.01,2013-03-28 00:27:00,
2013-03-27 20:32:00,48.6,27.1,30.13,NNW,329,0.0,0.0,43,0.00,,---,0.00,VWS V14.01,2013-03-28 00:32:00,
2013-03-27 20:37:00,48.6,27.1,30.13,NNW,329,0.0,0.0,43,0.00,,---,0.00,VWS V14.01,2013-03-28 00:37:00,
2013-03-27 20:42:00,48.6,27.1,30.13,NNW,329,0.0,0.0,43,0.00,,---,0.00,VWS V14.01,2013-03-28 00:42:00,
2013-03-27 20:47:00,48.6,27.1,30.14,NNW,329,0.0,0.0,43,0.00,,---,0.00,VWS V14.01,2013-03-28 00:47:00,
2013-03-27 20:52:00,48.6,27.1,30.14,NNW,329,0.0,0.0,43,0.00,,---,0.00,VWS V14.01,2013-03-28 00:52:00,
2013-03-27 20:57:00,48.6,27.1,30.14,NNW,329,0.0,0.0,43,0.00,,---,0.00,VWS V14.01,2013-03-28 00:57:00,
2013-03-27 21:03:00,48.6,27.1,30.14,NNW,329,0.0,0.0,43,0.00,,---,0.00,VWS V14.01,2013-03-28 01:03:00,
2013-03-27 21:08:00,48.6,27.1,30.14,NNW,329,0.0,0.0,43,0.00,,---,0.00,VWS V14.01,2013-03-28 01:08:00,
2013-03-27 21:13:00,48.6,27.1,30.14,NNW,329,0.0,0.0,43,0.00,,---,0.00,VWS V14.01,2013-03-28 01:13:00,
2013-03-27 21:18:00,48.6,27.1,30.15,NNW,329,0.0,0.0,43,0.00,,---,0.00,VWS V14.01,2013-03-28 01:18:00,
2013-03-27 21:23:00,48.6,27.1,30.15,NNW,329,0.0,0.0,43,0.00,,---,0.00,VWS V14.01,2013-03-28 01:23:00,
2013-03-27 21:28:00,48.6,27.1,30.15,NNW,329,0.0,0.0,43,0.00,,---,0.00,VWS V14.01,2013-03-28 01:28:00,
2013-03-27 21:33:00,48.6,29.3,30.15,NNW,332,0.0,0.0,47,0.00,,---,0.00,VWS V14.01,2013-03-28 01:33:00,
2013-03-27 21:38:00,45.2,26.2,30.15,NNW,332,0.0,0.0,47,0.00,,---,0.00,VWS V14.01,2013-03-28 01:38:00,
2013-03-27 21:43:00,45.1,25.6,30.15,NNW,332,0.0,0.0,46,0.00,,---,0.00,VWS V14.01,2013-03-28 01:43:00,
2013-03-27 21:48:00,44.9,25.4,30.15,NNW,332,0.0,0.0,46,0.00,,---,0.00,VWS V14.01,2013-03-28 01:48:00,
2013-03-27 21:53:00,44.8,27.3,30.15,NNW,332,0.0,0.0,50,0.00,,---,0.00,VWS V14.01,2013-03-28 01:53:00,
2013-03-27 21:58:00,44.6,26.1,30.15,NNW,332,0.0,0.0,48,0.00,,---,0.00,VWS V14.01,2013-03-28 01:58:00,
2013-03-27 22:03:00,44.5,26.0,30.16,NNW,332,0.0,0.0,48,0.00,,---,0.00,VWS V14.01,2013-03-28 02:03:00,
2013-03-27 22:08:00,44.3,26.4,30.16,NNW,332,0.0,0.0,49,0.00,,---,0.00,VWS V14.01,2013-03-28 02:08:00,
2013-03-27 22:13:00,44.2,25.8,30.16,NNW,332,0.0,0.0,48,0.00,,---,0.00,VWS V14.01,2013-03-28 02:13:00,
2013-03-27 22:18:00,44.1,26.2,30.16,NNW,332,0.0,0.0,49,0.00,,---,0.00,VWS V14.01,2013-03-28 02:18:00,
2013-03-27 22:23:00,44.1,26.2,30.16,NNW,332,0.0,0.0,49,0.00,,---,0.00,VWS V14.01,2013-03-28 02:23:00,
2013-03-27 22:28:00,44.1,26.2,30.16,North,359,0.0,0.0,49,0.00,,---,0.00,VWS V14.01,2013-03-28 02:28:00,
2013-03-27 22:33:00,44.2,25.8,30.16,North,359,0.0,0.0,48,0.00,,---,0.00,VWS V14.01,2013-03-28 02:33:00,
2013-03-27 22:38:00,44.2,26.3,30.16,North,359,0.0,0.0,49,0.00,,---,0.00,VWS V14.01,2013-03-28 02:38:00,
2013-03-27 22:43:00,44.1,26.2,30.16,North,359,0.0,0.0,49,0.00,,---,0.00,VWS V14.01,2013-03-28 02:43:00,
2013-03-27 22:48:00,43.9,26.0,30.16,North,359,0.0,0.0,49,0.00,,---,0.00,VWS V14.01,2013-03-28 02:48:00,
2013-03-27 22:53:00,43.6,25.2,30.16,North,359,0.0,0.0,48,0.00,,---,0.00,VWS V14.01,2013-03-28 02:53:00,
2013-03-27 22:57:00,43.5,27.1,30.16,North,359,0.0,0.0,52,0.00,,---,0.00,VWS V14.01,2013-03-28 02:57:00,
2013-03-27 22:58:00,41.8,28.1,30.17,North,359,0.0,0.0,58,0.00,,---,0.00,VWS V14.01,2013-03-28 02:58:00,
2013-03-27 22:59:00,41.8,27.3,30.17,North,359,0.0,0.0,56,0.00,,---,0.00,VWS V14.01,2013-03-28 02:59:00,
2013-03-27 23:00:00,41.6,27.1,30.17,North,359,0.0,0.0,56,0.00,,---,0.00,VWS V14.01,2013-03-28 03:00:00,
2013-03-27 23:01:00,41.6,27.9,30.17,North,359,0.0,0.0,58,0.00,,---,0.00,VWS V14.01,2013-03-28 03:01:00,
2013-03-27 23:02:00,43.5,27.1,30.16,North,359,0.0,0.0,52,0.00,,---,0.00,VWS V14.01,2013-03-28 03:02:00,
2013-03-27 23:07:00,43.3,27.3,30.16,North,359,0.0,0.0,53,0.00,,---,0.00,VWS V14.01,2013-03-28 03:07:00,
2013-03-27 23:12:00,43.3,26.4,30.16,North,359,0.0,0.0,51,0.00,,---,0.00,VWS V14.01,2013-03-28 03:12:00,
2013-03-27 23:17:00,43.2,27.2,30.16,North,359,0.0,0.0,53,0.00,,---,0.00,VWS V14.01,2013-03-28 03:17:00,
2013-03-27 23:22:00,42.9,27.4,30.16,North,359,0.0,0.0,54,0.00,,---,0.00,VWS V14.01,2013-03-28 03:22:00,
2013-03-27 23:27:00,42.8,28.2,30.16,North,359,0.0,0.0,56,0.00,,---,0.00,VWS V14.01,2013-03-28 03:27:00,
2013-03-27 23:32:00,42.6,29.7,30.17,North,359,0.0,0.0,60,0.00,,---,0.00,VWS V14.01,2013-03-28 03:32:00,
2013-03-27 23:38:00,42.5,29.2,30.17,North,359,0.0,0.0,59,0.00,,---,0.00,VWS V14.01,2013-03-28 03:38:00,
2013-03-27 23:43:00,42.3,29.4,30.17,North,359,0.0,0.0,60,0.00,,---,0.00,VWS V14.01,2013-03-28 03:43:00,
2013-03-27 23:48:00,42.2,28.9,30.17,North,359,0.0,0.0,59,0.00,,---,0.00,VWS V14.01,2013-03-28 03:48:00,
2013-03-27 23:53:00,42.1,27.1,30.17,North,359,0.0,0.0,55,0.00,,---,0.00,VWS V14.01,2013-03-28 03:53:00,
2013-03-27 23:58:00,41.9,28.2,30.17,North,359,0.0,0.0,58,0.00,,---,0.00,VWS V14.01,2013-03-28 03:58:00,